BAW6LP EGLL-EIDW

Flight info

Callsign BAW6LP
Flight time 0h 51m
Altitude 34000
Route CPT L9 DIDZA N14 BIBPE DCT OKTAD DCT MEDOG DCT KRAGY DCT PEMOB DCT LEMGU M17 VATRY VATRY3R
Aircraft A320/M-SDE3FGHIRWY/LB1

Departure

Time 2026-05-03 23:10
Airport London Heathrow Airport (EGLL)

Arrival

Time 2026-05-04 00:01
Airport Dublin Airport (EIDW)
Time Latitude Longitude Altitude Speed Heading
2026-05-03 22:43 51.47341 -0.44409 88 ft 0 kts 89°
2026-05-03 22:56 51.47341 -0.44417 87 ft 2 kts 89°
2026-05-03 22:56 51.47341 -0.44444 89 ft 2 kts 91°
2026-05-03 22:57 51.47342 -0.44470 87 ft 2 kts 93°
2026-05-03 22:57 51.47343 -0.44497 89 ft 2 kts 97°
2026-05-03 22:57 51.47346 -0.44523 89 ft 2 kts 108°
2026-05-03 22:57 51.47353 -0.44547 90 ft 2 kts 146°
2026-05-03 22:58 51.47366 -0.44556 89 ft 1 kts 182°
2026-05-03 22:58 51.47368 -0.44556 89 ft 0 kts 182°
2026-05-03 23:04 51.47364 -0.44556 88 ft 2 kts 182°
2026-05-03 23:04 51.47332 -0.44556 85 ft 6 kts 179°
2026-05-03 23:04 51.47270 -0.44555 86 ft 13 kts 180°
2026-05-03 23:05 51.47147 -0.44556 85 ft 23 kts 181°
2026-05-03 23:05 51.46977 -0.44557 86 ft 22 kts 178°
2026-05-03 23:05 51.46836 -0.44556 87 ft 20 kts 180°
2026-05-03 23:05 51.46692 -0.44545 88 ft 19 kts 157°
2026-05-03 23:06 51.46666 -0.44352 85 ft 12 kts 89°
2026-05-03 23:06 51.46666 -0.44262 84 ft 4 kts 90°
2026-05-03 23:06 51.46666 -0.44261 84 ft 0 kts 89°
2026-05-03 23:07 51.46666 -0.44259 84 ft 1 kts 90°
2026-05-03 23:07 51.46666 -0.44224 85 ft 5 kts 89°
2026-05-03 23:07 51.46666 -0.44121 82 ft 13 kts 91°
2026-05-03 23:07 51.46600 -0.44054 85 ft 13 kts 180°
2026-05-03 23:08 51.46508 -0.44075 83 ft 15 kts 216°
2026-05-03 23:08 51.46494 -0.44144 84 ft 0 kts 269°
2026-05-03 23:08 51.46493 -0.44155 83 ft 4 kts 269°
2026-05-03 23:09 51.46492 -0.44553 87 ft 71 kts 270°
2026-05-03 23:09 51.46487 -0.45679 82 ft 128 kts 270°
2026-05-03 23:09 51.46482 -0.47345 116 ft 168 kts 268°
2026-05-03 23:09 51.46471 -0.49247 655 ft 173 kts 268°
2026-05-03 23:10 51.46474 -0.51183 1359 ft 175 kts 267°
2026-05-03 23:10 51.46483 -0.53183 1819 ft 189 kts 266°
2026-05-03 23:10 51.46486 -0.55424 2187 ft 213 kts 266°
2026-05-03 23:10 51.46488 -0.57892 2613 ft 236 kts 267°
2026-05-03 23:11 51.46462 -0.60626 3244 ft 250 kts 261°
2026-05-03 23:11 51.46099 -0.63362 4128 ft 253 kts 253°
2026-05-03 23:11 51.45694 -0.66131 5080 ft 256 kts 257°
2026-05-03 23:11 51.45593 -0.69052 6025 ft 261 kts 265°
2026-05-03 23:12 51.45567 -0.71929 6895 ft 263 kts 265°
2026-05-03 23:12 51.45542 -0.74887 7744 ft 267 kts 265°
2026-05-03 23:12 51.45504 -0.77888 8568 ft 271 kts 264°
2026-05-03 23:12 51.45442 -0.80929 9311 ft 274 kts 264°
2026-05-03 23:13 51.45370 -0.84003 10102 ft 279 kts 264°
2026-05-03 23:13 51.45319 -0.87286 10373 ft 304 kts 268°
2026-05-03 23:13 51.45589 -0.90739 10566 ft 329 kts 277°
2026-05-03 23:13 51.46015 -0.94410 11064 ft 339 kts 277°
2026-05-03 23:14 51.46447 -0.98144 11671 ft 340 kts 277°
2026-05-03 23:14 51.46880 -1.01891 12142 ft 345 kts 276°
2026-05-03 23:14 51.47316 -1.05691 12834 ft 348 kts 276°
2026-05-03 23:14 51.47752 -1.09531 13533 ft 352 kts 276°
2026-05-03 23:15 51.48191 -1.13417 14171 ft 355 kts 276°
2026-05-03 23:15 51.48681 -1.17322 14791 ft 361 kts 281°
2026-05-03 23:15 51.49598 -1.21108 15393 ft 369 kts 293°
2026-05-03 23:15 51.51026 -1.24587 15993 ft 378 kts 306°
2026-05-03 23:16 51.52896 -1.27620 16597 ft 385 kts 313°
2026-05-03 23:16 51.54863 -1.30566 17221 ft 388 kts 313°
2026-05-03 23:16 51.56841 -1.33545 17834 ft 391 kts 313°
2026-05-03 23:16 51.58831 -1.36559 18425 ft 395 kts 312°
2026-05-03 23:17 51.60665 -1.39829 18972 ft 393 kts 302°
2026-05-03 23:17 51.62117 -1.43539 19532 ft 392 kts 293°
2026-05-03 23:17 51.63397 -1.47428 20106 ft 395 kts 294°
2026-05-03 23:17 51.64697 -1.51346 20668 ft 398 kts 294°
2026-05-03 23:18 51.66012 -1.55296 21220 ft 402 kts 294°
2026-05-03 23:18 51.67337 -1.59278 21738 ft 405 kts 294°
2026-05-03 23:18 51.68671 -1.63287 22246 ft 408 kts 294°
2026-05-03 23:18 51.69870 -1.67430 22738 ft 407 kts 286°
2026-05-03 23:19 51.70631 -1.71811 23237 ft 406 kts 276°
2026-05-03 23:19 51.70999 -1.76316 23694 ft 406 kts 272°
2026-05-03 23:19 51.71318 -1.80854 24103 ft 409 kts 272°
2026-05-03 23:19 51.71682 -1.85418 24502 ft 413 kts 276°
2026-05-03 23:20 51.72335 -1.89967 24896 ft 418 kts 279°
2026-05-03 23:20 51.73014 -1.94475 25271 ft 420 kts 279°
2026-05-03 23:20 51.73703 -1.99063 25645 ft 422 kts 279°
2026-05-03 23:20 51.74391 -2.03689 26025 ft 425 kts 278°
2026-05-03 23:21 51.75074 -2.08332 26421 ft 427 kts 278°
2026-05-03 23:21 51.75761 -2.13015 26784 ft 430 kts 278°
2026-05-03 23:21 51.76451 -2.17728 27157 ft 432 kts 278°
2026-05-03 23:21 51.77143 -2.22455 27521 ft 435 kts 278°
2026-05-03 23:22 51.78537 -2.32011 28237 ft 439 kts 278°
2026-05-03 23:22 51.79233 -2.36826 28591 ft 441 kts 278°
2026-05-03 23:22 51.79931 -2.41658 28937 ft 444 kts 278°
2026-05-03 23:23 51.80633 -2.46528 29273 ft 446 kts 278°
2026-05-03 23:23 51.81333 -2.51405 29744 ft 445 kts 278°
2026-05-03 23:23 51.82032 -2.56285 30217 ft 443 kts 278°
2026-05-03 23:23 51.82711 -2.61139 30643 ft 442 kts 277°
2026-05-03 23:24 51.83372 -2.65988 31061 ft 441 kts 277°
2026-05-03 23:24 51.84018 -2.70832 31462 ft 441 kts 277°
2026-05-03 23:24 51.84658 -2.75668 31869 ft 440 kts 277°
2026-05-03 23:24 51.85301 -2.80517 32263 ft 440 kts 277°
2026-05-03 23:25 51.85728 -2.83717 32542 ft 440 kts 278°
2026-05-03 23:25 51.86596 -2.90190 33086 ft 440 kts 278°
2026-05-03 23:25 51.87242 -2.95017 33490 ft 439 kts 278°
2026-05-03 23:25 51.87884 -2.99855 33868 ft 440 kts 278°
2026-05-03 23:26 51.89171 -3.09625 33971 ft 454 kts 278°
2026-05-03 23:26 51.90497 -3.19760 33971 ft 466 kts 278°
2026-05-03 23:27 51.91846 -3.30123 33973 ft 474 kts 278°
2026-05-03 23:27 51.92984 -3.38923 33970 ft 480 kts 278°
2026-05-03 23:28 51.93666 -3.44218 34179 ft 478 kts 278°
2026-05-03 23:28 51.94342 -3.49451 34547 ft 472 kts 278°
2026-05-03 23:28 51.95004 -3.54560 34916 ft 465 kts 278°
2026-05-03 23:28 51.95654 -3.59608 35010 ft 452 kts 278°
2026-05-03 23:29 51.96286 -3.64568 34532 ft 448 kts 278°
2026-05-03 23:29 51.96905 -3.69500 34108 ft 446 kts 278°
2026-05-03 23:29 51.97519 -3.74433 33927 ft 446 kts 278°
2026-05-03 23:29 51.98130 -3.79367 33969 ft 447 kts 278°
2026-05-03 23:30 51.99724 -3.89109 33967 ft 452 kts 291°
2026-05-03 23:30 52.01031 -3.93761 33848 ft 451 kts 291°
2026-05-03 23:30 52.02340 -3.98391 33090 ft 452 kts 292°
2026-05-03 23:31 52.03657 -4.03033 32318 ft 452 kts 292°
2026-05-03 23:31 52.04972 -4.07675 31571 ft 453 kts 292°
2026-05-03 23:31 52.06285 -4.12322 30840 ft 453 kts 292°
2026-05-03 23:31 52.07598 -4.16982 30077 ft 454 kts 292°
2026-05-03 23:32 52.08900 -4.21630 29429 ft 449 kts 292°
2026-05-03 23:32 52.10187 -4.26232 28777 ft 445 kts 292°
2026-05-03 23:32 52.11456 -4.30782 28141 ft 440 kts 293°
2026-05-03 23:32 52.12715 -4.35298 27513 ft 436 kts 293°
2026-05-03 23:33 52.13961 -4.39778 26917 ft 433 kts 293°
2026-05-03 23:33 52.15195 -4.44224 26344 ft 429 kts 293°
2026-05-03 23:33 52.16416 -4.48640 25758 ft 425 kts 293°
2026-05-03 23:33 52.17622 -4.53014 25186 ft 422 kts 293°
2026-05-03 23:34 52.18818 -4.57359 24626 ft 419 kts 293°
2026-05-03 23:34 52.20004 -4.61669 24127 ft 415 kts 293°
2026-05-03 23:34 52.21190 -4.65964 23950 ft 416 kts 293°
2026-05-03 23:34 52.22361 -4.70207 23957 ft 416 kts 293°
2026-05-03 23:35 52.23561 -4.74569 23966 ft 417 kts 293°
2026-05-03 23:35 52.24742 -4.78887 23965 ft 417 kts 293°
2026-05-03 23:35 52.25905 -4.83149 23966 ft 417 kts 293°
2026-05-03 23:35 52.27101 -4.87538 23968 ft 417 kts 293°
2026-05-03 23:36 52.28282 -4.91878 23967 ft 418 kts 293°
2026-05-03 23:36 52.29460 -4.96219 23974 ft 420 kts 294°
2026-05-03 23:36 52.30644 -5.00596 23968 ft 422 kts 295°
2026-05-03 23:36 52.31830 -5.04990 23969 ft 423 kts 295°
2026-05-03 23:37 52.33001 -5.09328 23967 ft 423 kts 295°
2026-05-03 23:37 52.34190 -5.13731 23970 ft 423 kts 295°
2026-05-03 23:37 52.35378 -5.18138 23968 ft 424 kts 295°
2026-05-03 23:37 52.36565 -5.22552 23971 ft 424 kts 295°
2026-05-03 23:38 52.37746 -5.26965 23971 ft 424 kts 295°
2026-05-03 23:38 52.39047 -5.31289 23975 ft 422 kts 302°
2026-05-03 23:38 52.40737 -5.35194 23971 ft 421 kts 312°
2026-05-03 23:38 52.42793 -5.38578 23977 ft 418 kts 322°
2026-05-03 23:39 52.45127 -5.41358 23743 ft 412 kts 331°
2026-05-03 23:39 52.47648 -5.43545 23164 ft 408 kts 335°
2026-05-03 23:39 52.50174 -5.45622 22584 ft 405 kts 335°
2026-05-03 23:39 52.52681 -5.47693 22053 ft 402 kts 335°
2026-05-03 23:40 52.55173 -5.49696 21548 ft 397 kts 339°
2026-05-03 23:40 52.57769 -5.51192 21068 ft 393 kts 345°
2026-05-03 23:40 52.60370 -5.52521 20596 ft 390 kts 345°
2026-05-03 23:40 52.62952 -5.53845 20117 ft 387 kts 345°
2026-05-03 23:41 52.65512 -5.55161 19652 ft 384 kts 344°
2026-05-03 23:41 52.68049 -5.56465 19184 ft 381 kts 345°
2026-05-03 23:41 52.70574 -5.57763 18699 ft 378 kts 345°
2026-05-03 23:41 52.73079 -5.59049 18222 ft 376 kts 345°
2026-05-03 23:42 52.75566 -5.60332 17669 ft 373 kts 345°
2026-05-03 23:42 52.78024 -5.61604 17130 ft 370 kts 345°
2026-05-03 23:42 52.80468 -5.62870 16595 ft 366 kts 344°
2026-05-03 23:42 52.82892 -5.64129 16060 ft 363 kts 344°
2026-05-03 23:43 52.85292 -5.65377 15539 ft 360 kts 345°
2026-05-03 23:43 52.87674 -5.66616 15029 ft 357 kts 344°
2026-05-03 23:43 52.90039 -5.67843 14516 ft 355 kts 344°
2026-05-03 23:43 52.92380 -5.69057 14019 ft 352 kts 344°
2026-05-03 23:44 52.94708 -5.70265 13497 ft 349 kts 344°
2026-05-03 23:44 52.97020 -5.71470 12945 ft 347 kts 344°
2026-05-03 23:44 52.99280 -5.72649 12424 ft 344 kts 343°
2026-05-03 23:44 53.01552 -5.73834 11904 ft 341 kts 343°
2026-05-03 23:45 53.03807 -5.75016 11390 ft 339 kts 343°
2026-05-03 23:45 53.06045 -5.76192 10880 ft 336 kts 343°
2026-05-03 23:45 53.08131 -5.77286 10422 ft 334 kts 343°
2026-05-03 23:45 53.10311 -5.78581 9953 ft 332 kts 334°
2026-05-03 23:46 53.12239 -5.80540 9805 ft 319 kts 322°
2026-05-03 23:46 53.13825 -5.83023 9668 ft 308 kts 311°
2026-05-03 23:46 53.15033 -5.85881 9531 ft 297 kts 299°
2026-05-03 23:46 53.15889 -5.88952 9378 ft 288 kts 294°
2026-05-03 23:47 53.16679 -5.91999 9087 ft 284 kts 294°
2026-05-03 23:47 53.17197 -5.93994 8862 ft 283 kts 294°
2026-05-03 23:47 53.18245 -5.98011 8395 ft 282 kts 295°
2026-05-03 23:47 53.19026 -6.01007 8052 ft 281 kts 295°
2026-05-03 23:48 53.19801 -6.03984 7721 ft 280 kts 295°
2026-05-03 23:48 53.20574 -6.06964 7385 ft 279 kts 295°
2026-05-03 23:48 53.21342 -6.09930 7081 ft 277 kts 295°
2026-05-03 23:48 53.22105 -6.12879 7019 ft 278 kts 295°
2026-05-03 23:49 53.22871 -6.15847 7025 ft 279 kts 295°
2026-05-03 23:49 53.23636 -6.18823 7034 ft 279 kts 295°
2026-05-03 23:49 53.24402 -6.21809 7025 ft 279 kts 295°
2026-05-03 23:49 53.25155 -6.24746 7029 ft 279 kts 295°
2026-05-03 23:50 53.25919 -6.27719 6838 ft 277 kts 295°
2026-05-03 23:50 53.26427 -6.29702 6521 ft 273 kts 295°
2026-05-03 23:50 53.27408 -6.33521 5849 ft 269 kts 295°
2026-05-03 23:50 53.28142 -6.36387 5345 ft 266 kts 295°
2026-05-03 23:51 53.28858 -6.39190 5050 ft 254 kts 295°
2026-05-03 23:51 53.29527 -6.41825 5032 ft 243 kts 296°
2026-05-03 23:51 53.30189 -6.44428 5034 ft 243 kts 296°
2026-05-03 23:51 53.30848 -6.47019 5034 ft 244 kts 295°
2026-05-03 23:52 53.31507 -6.49618 5029 ft 242 kts 295°
2026-05-03 23:52 53.32164 -6.52211 5024 ft 242 kts 295°
2026-05-03 23:52 53.32819 -6.54794 5032 ft 241 kts 295°
2026-05-03 23:52 53.33470 -6.57364 4833 ft 239 kts 295°
2026-05-03 23:53 53.34120 -6.59929 4504 ft 239 kts 295°
2026-05-03 23:53 53.34768 -6.62485 4219 ft 238 kts 295°
2026-05-03 23:53 53.35414 -6.65029 3923 ft 236 kts 297°
2026-05-03 23:53 53.36338 -6.67236 3640 ft 230 kts 320°
2026-05-03 23:54 53.37657 -6.68647 3347 ft 223 kts 342°
2026-05-03 23:54 53.39154 -6.69130 3065 ft 216 kts
2026-05-03 23:54 53.40582 -6.68924 3004 ft 196 kts
2026-05-03 23:54 53.41907 -6.68720 3042 ft 192 kts
2026-05-03 23:55 53.43207 -6.68253 3019 ft 187 kts 24°
2026-05-03 23:55 53.44299 -6.67111 3010 ft 185 kts 43°
2026-05-03 23:55 53.45091 -6.65421 3007 ft 185 kts 61°
2026-05-03 23:55 53.45494 -6.63364 3012 ft 187 kts 80°
2026-05-03 23:56 53.45471 -6.61168 3017 ft 189 kts 92°
2026-05-03 23:56 53.45358 -6.58998 3009 ft 189 kts 92°
2026-05-03 23:56 53.45244 -6.56797 3007 ft 189 kts 92°
2026-05-03 23:56 53.45130 -6.54600 3010 ft 189 kts 92°
2026-05-03 23:57 53.45015 -6.52396 3011 ft 190 kts 92°
2026-05-03 23:57 53.44899 -6.50197 2868 ft 189 kts 92°
2026-05-03 23:57 53.44784 -6.48008 2645 ft 188 kts 92°
2026-05-03 23:57 53.44671 -6.45877 2399 ft 178 kts 92°
2026-05-03 23:58 53.44564 -6.43881 2165 ft 164 kts 92°
2026-05-03 23:58 53.44469 -6.42105 1967 ft 144 kts 91°
2026-05-03 23:58 53.44383 -6.40487 1771 ft 136 kts 91°
2026-05-03 23:58 53.44300 -6.38919 1587 ft 134 kts 92°
2026-05-03 23:59 53.44218 -6.37373 1394 ft 134 kts 91°
2026-05-03 23:59 53.44134 -6.35809 1208 ft 135 kts 92°
2026-05-03 23:59 53.44050 -6.34240 1013 ft 135 kts 92°
2026-05-03 23:59 53.43965 -6.32680 827 ft 134 kts 92°
2026-05-04 00:00 53.43880 -6.31132 641 ft 134 kts 93°
2026-05-04 00:00 53.43793 -6.29583 434 ft 133 kts 92°
2026-05-04 00:00 53.43714 -6.28039 268 ft 133 kts 92°
2026-05-04 00:00 53.43641 -6.26626 225 ft 101 kts 96°
2026-05-04 00:01 53.43591 -6.25743 224 ft 51 kts 95°
2026-05-04 00:01 53.43565 -6.25399 224 ft 21 kts 106°
2026-05-04 00:01 53.43510 -6.25177 225 ft 19 kts 122°
2026-05-04 00:01 53.43441 -6.24993 225 ft 15 kts 144°
2026-05-04 00:02 53.43400 -6.25044 225 ft 9 kts 253°
2026-05-04 00:02 53.43388 -6.25166 225 ft 13 kts 272°
2026-05-04 00:02 53.43396 -6.25330 225 ft 16 kts 275°
2026-05-04 00:02 53.43406 -6.25530 225 ft 19 kts 275°
2026-05-04 00:03 53.43390 -6.25664 225 ft 4 kts 180°
2026-05-04 00:03 53.43302 -6.25612 225 ft 19 kts 155°
2026-05-04 00:03 53.43171 -6.25514 227 ft 22 kts 156°
2026-05-04 00:03 53.43019 -6.25407 225 ft 25 kts 157°
2026-05-04 00:04 53.42952 -6.25273 225 ft 16 kts 69°
2026-05-04 00:04 53.42956 -6.25080 225 ft 17 kts 95°
2026-05-04 00:04 53.42992 -6.25010 225 ft 6 kts
2026-05-04 00:04 53.43013 -6.25006 225 ft 0 kts